Time,TemperatureF,DewpointF,PressureIn,WindDirection,WindDirectionDegrees,WindSpeedMPH,WindSpeedGustMPH,Humidity,HourlyPrecipIn,Conditions,Clouds,dailyrainin,SoftwareType,DateUTC
2013-02-16 00:00:00,26.8,6.7,29.24,NW,308,3.0,4.0,42,0.00,CLR,FEW,0.00,WeatherDisplay:10.37,2013-02-16 06:00:00,
2013-02-16 00:05:00,27.3,7.2,29.24,North,350,2.0,4.0,42,0.00,CLR,FEW,0.00,WeatherDisplay:10.37,2013-02-16 06:05:00,
2013-02-16 00:10:00,29.8,9.5,29.24,NNE,25,1.0,2.0,42,0.00,CLR,FEW,0.00,WeatherDisplay:10.37,2013-02-16 06:10:00,
2013-02-16 00:15:00,29.8,9.5,29.20,NW,323,2.0,3.0,42,0.00,CLR,FEW,0.00,WeatherDisplay:10.37,2013-02-16 06:15:00,
2013-02-16 00:20:00,29.8,9.5,29.20,West,263,1.0,3.0,42,0.00,CLR,FEW,0.00,WeatherDisplay:10.37,2013-02-16 06:20:00,
2013-02-16 00:25:00,31.3,10.3,29.20,SSW,192,1.0,2.0,41,0.00,CLR,FEW,0.00,WeatherDisplay:10.37,2013-02-16 06:25:00,
2013-02-16 00:30:00,31.1,10.1,29.20,SSE,149,2.0,2.0,41,0.00,CLR,FEW,0.00,WeatherDisplay:10.37,2013-02-16 06:30:00,
2013-02-16 00:35:00,32.5,11.4,29.20,SE,130,0.0,2.0,41,0.00,CLR,FEW,0.00,WeatherDisplay:10.37,2013-02-16 06:35:00,
2013-02-16 00:40:00,32.2,10.5,29.20,South,184,2.0,3.0,40,0.00,CLR,FEW,0.00,WeatherDisplay:10.37,2013-02-16 06:40:00,
2013-02-16 00:45:00,32.0,10.4,29.20,SSW,198,1.0,3.0,40,0.00,CLR,FEW,0.00,WeatherDisplay:10.37,2013-02-16 06:45:00,
2013-02-16 00:50:00,31.1,9.6,29.20,South,180,2.0,4.0,40,0.00,CLR,FEW,0.00,WeatherDisplay:10.37,2013-02-16 06:50:00,
2013-02-16 00:55:00,31.1,9.6,29.20,South,171,2.0,6.0,40,0.00,CLR,FEW,0.00,WeatherDisplay:10.37,2013-02-16 06:55:00,
2013-02-16 01:00:00,30.7,9.2,29.18,WSW,251,1.0,3.0,40,0.00,CLR,FEW,0.00,WeatherDisplay:10.37,2013-02-16 07:00:00,
2013-02-16 01:05:00,29.3,7.9,29.18,West,262,2.0,3.0,40,0.00,CLR,FEW,0.00,WeatherDisplay:10.37,2013-02-16 07:05:00,
2013-02-16 01:10:00,28.9,7.6,29.18,SW,227,2.0,5.0,40,0.00,CLR,FEW,0.00,WeatherDisplay:10.37,2013-02-16 07:10:00,
2013-02-16 01:15:00,29.1,7.8,29.18,SSW,200,2.0,4.0,40,0.00,CLR,FEW,0.00,WeatherDisplay:10.37,2013-02-16 07:15:00,
2013-02-16 01:20:00,30.6,9.1,29.18,SW,224,2.0,4.0,40,0.00,CLR,FEW,0.00,WeatherDisplay:10.37,2013-02-16 07:20:00,
2013-02-16 01:25:00,30.7,8.7,29.18,SW,220,2.0,2.0,39,0.00,CLR,FEW,0.00,WeatherDisplay:10.37,2013-02-16 07:25:00,
2013-02-16 01:30:00,29.1,7.2,29.18,SSW,196,2.0,3.0,39,0.00,CLR,FEW,0.00,WeatherDisplay:10.37,2013-02-16 07:30:00,
2013-02-16 01:35:00,28.8,6.9,29.18,SSW,205,2.0,4.0,39,0.00,CLR,FEW,0.00,WeatherDisplay:10.37,2013-02-16 07:35:00,
2013-02-16 01:40:00,30.2,8.2,29.18,SSW,209,2.0,3.0,39,0.00,CLR,FEW,0.00,WeatherDisplay:10.37,2013-02-16 07:40:00,
2013-02-16 01:45:00,30.9,9.4,29.18,South,188,2.0,2.0,40,0.00,CLR,FEW,0.00,WeatherDisplay:10.37,2013-02-16 07:45:00,
2013-02-16 01:46:00,32.0,10.4,29.18,SSE,164,1.0,6.0,40,0.00,,FEW,0.00,WeatherDisplay:10.37,2013-02-16 07:46:00,
2013-02-16 01:47:00,32.0,10.4,29.18,SSE,164,1.0,0.0,40,0.00,,FEW,0.00,WeatherDisplay:10.37,2013-02-16 07:47:00,
2013-02-16 01:48:00,32.0,10.4,29.18,SSE,164,1.0,0.0,40,0.00,,FEW,0.00,WeatherDisplay:10.37,2013-02-16 07:48:00,
2013-02-16 01:49:00,32.0,10.4,29.18,SSE,164,1.0,0.0,40,0.00,,FEW,0.00,WeatherDisplay:10.37,2013-02-16 07:49:00,
2013-02-16 01:50:00,32.0,10.4,29.18,SSE,164,1.0,0.0,40,0.00,,FEW,0.00,WeatherDisplay:10.37,2013-02-16 07:50:00,
2013-02-16 14:49:00,32.0,10.4,29.18,WSW,248,3.6,3.6,40,0.00,,FEW,0.00,WeatherDisplay:10.37,2013-02-16 20:49:00,
2013-02-16 14:54:00,30.9,8.2,29.18,West,270,3.5,3.5,38,0.00,,FEW,0.00,WeatherDisplay:10.37,2013-02-16 20:54:00,
2013-02-16 14:59:00,28.4,6.0,29.18,SSE,158,4.6,4.6,38,0.00,,FEW,0.00,WeatherDisplay:10.37,2013-02-16 20:59:00,
2013-02-16 15:04:00,30.6,7.9,29.20,East,90,4.6,4.6,38,0.00,,FEW,0.00,WeatherDisplay:10.37,2013-02-16 21:04:00,
2013-02-16 15:10:00,32.5,10.3,29.20,SSW,202,1.4,0.0,39,0.00,,FEW,0.00,WeatherDisplay:10.37,2013-02-16 21:10:00,
2013-02-16 15:15:00,32.7,9.9,29.20,South,180,2.3,2.3,38,0.00,,FEW,0.00,WeatherDisplay:10.37,2013-02-16 21:15:00,
2013-02-16 15:20:00,30.6,7.3,29.18,WSW,248,3.5,3.5,37,0.00,,FEW,0.00,WeatherDisplay:10.37,2013-02-16 21:20:00,
2013-02-16 15:25:00,30.7,7.5,29.18,SSE,158,3.5,3.5,37,0.00,,FEW,0.00,WeatherDisplay:10.37,2013-02-16 21:25:00,
2013-02-16 15:30:00,31.5,8.7,29.18,SSE,158,2.6,0.0,38,0.00,,FEW,0.00,WeatherDisplay:10.37,2013-02-16 21:30:00,
2013-02-16 15:35:00,32.7,9.9,29.20,WSW,248,4.9,0.0,38,0.00,,FEW,0.00,WeatherDisplay:10.37,2013-02-16 21:35:00,
2013-02-16 15:40:00,31.1,8.4,29.20,South,180,1.1,1.1,38,0.00,,FEW,0.00,WeatherDisplay:10.37,2013-02-16 21:40:00,
2013-02-16 15:45:00,31.8,9.1,29.20,ESE,112,2.3,2.3,38,0.00,,FEW,0.00,WeatherDisplay:10.37,2013-02-16 21:45:00,
2013-02-16 15:50:00,32.0,9.2,29.20,East,90,3.5,3.5,38,0.00,,FEW,0.00,WeatherDisplay:10.37,2013-02-16 21:50:00,
2013-02-16 15:55:00,30.0,6.9,29.20,SE,135,4.6,4.6,37,0.00,,FEW,0.00,WeatherDisplay:10.37,2013-02-16 21:55:00,
2013-02-16 16:00:00,29.3,6.2,29.20,ESE,112,4.6,4.6,37,0.00,,FEW,0.00,WeatherDisplay:10.37,2013-02-16 22:00:00,
2013-02-16 16:05:00,28.6,5.6,29.18,ESE,112,3.5,3.5,37,0.00,,FEW,0.00,WeatherDisplay:10.37,2013-02-16 22:05:00,
2013-02-16 16:10:00,28.9,7.0,29.18,SSE,158,3.3,3.3,39,0.00,,FEW,0.00,WeatherDisplay:10.37,2013-02-16 22:10:00,
2013-02-16 16:15:00,28.4,6.6,29.18,SSW,202,3.5,3.5,39,0.00,,FEW,0.00,WeatherDisplay:10.37,2013-02-16 22:15:00,
2013-02-16 16:20:00,27.9,6.1,29.24,ESE,112,3.5,3.5,39,0.00,,FEW,0.00,WeatherDisplay:10.37,2013-02-16 22:20:00,
2013-02-16 16:25:00,28.0,6.2,29.24,SSE,158,2.9,2.9,39,0.00,,FEW,0.00,WeatherDisplay:10.37,2013-02-16 22:25:00,
2013-02-16 16:30:00,26.8,4.5,29.24,South,180,6.9,6.9,38,0.00,,FEW,0.00,WeatherDisplay:10.37,2013-02-16 22:30:00,
2013-02-16 16:35:00,26.2,5.2,29.20,SSW,202,5.4,5.4,40,0.00,,FEW,0.00,WeatherDisplay:10.37,2013-02-16 22:35:00,
2013-02-16 16:40:00,25.3,4.3,29.20,ENE,68,4.6,4.6,40,0.00,,FEW,0.00,WeatherDisplay:10.37,2013-02-16 22:40:00,
2013-02-16 16:45:00,26.1,5.5,29.20,SE,135,3.5,3.5,41,0.00,,FEW,0.00,WeatherDisplay:10.37,2013-02-16 22:45:00,
2013-02-16 16:50:00,25.7,5.2,29.18,SSE,158,3.5,3.5,41,0.00,,FEW,0.00,WeatherDisplay:10.37,2013-02-16 22:50:00,
2013-02-16 16:55:00,25.2,4.7,29.18,SSW,202,4.6,4.6,41,0.00,,FEW,0.00,WeatherDisplay:10.37,2013-02-16 22:55:00,
2013-02-16 17:00:00,24.1,4.3,29.18,SSW,202,6.0,6.0,42,0.00,,FEW,0.00,WeatherDisplay:10.37,2013-02-16 23:00:00,
2013-02-16 17:05:00,23.7,3.9,29.20,South,180,3.8,4.0,42,0.00,,FEW,0.00,WeatherDisplay:10.37,2013-02-16 23:05:00,
2013-02-16 17:10:00,22.8,3.1,29.20,East,90,4.6,4.6,42,0.00,,FEW,0.00,WeatherDisplay:10.37,2013-02-16 23:10:00,
2013-02-16 17:15:00,21.7,2.1,29.20,South,180,5.8,5.8,42,0.00,,FEW,0.00,WeatherDisplay:10.37,2013-02-16 23:15:00,
2013-02-16 17:20:00,20.7,1.7,29.24,SSE,158,4.6,4.6,43,0.00,,FEW,0.00,WeatherDisplay:10.37,2013-02-16 23:20:00,
2013-02-16 17:25:00,18.5,0.2,29.24,ESE,112,5.4,5.4,44,0.00,,FEW,0.00,WeatherDisplay:10.37,2013-02-16 23:25:00,
2013-02-16 17:30:00,17.1,-0.7,29.24,SSE,158,4.6,4.6,45,0.00,,FEW,0.00,WeatherDisplay:10.37,2013-02-16 23:30:00,
2013-02-16 17:35:00,16.3,-1.3,29.20,SSE,158,3.5,3.5,45,0.00,,FEW,0.00,WeatherDisplay:10.37,2013-02-16 23:35:00,
2013-02-16 17:40:00,15.6,-1.5,29.20,SSE,158,2.4,0.0,46,0.00,,FEW,0.00,WeatherDisplay:10.37,2013-02-16 23:40:00,
2013-02-16 17:45:00,15.1,-1.6,29.20,ESE,112,2.0,2.0,47,0.00,,FEW,0.00,WeatherDisplay:10.37,2013-02-16 23:45:00,
2013-02-16 17:50:00,14.5,-1.6,29.20,South,180,1.1,1.1,48,0.00,,FEW,0.00,WeatherDisplay:10.37,2013-02-16 23:50:00,
2013-02-16 17:55:00,14.0,-1.7,29.20,SSW,202,3.5,3.5,49,0.00,,FEW,0.00,WeatherDisplay:10.37,2013-02-16 23:55:00,
2013-02-16 18:00:00,13.6,-2.0,29.20,SE,135,2.3,2.3,49,0.00,,FEW,0.00,WeatherDisplay:10.37,2013-02-17 00:00:00,
2013-02-16 18:05:00,13.3,-2.3,29.20,ESE,112,1.1,1.1,49,0.00,,FEW,0.00,WeatherDisplay:10.37,2013-02-17 00:05:00,
2013-02-16 18:10:00,12.9,-2.7,29.20,ESE,112,1.1,0.0,49,0.00,,FEW,0.00,WeatherDisplay:10.37,2013-02-17 00:10:00,
2013-02-16 18:15:00,12.6,-3.0,29.20,ESE,112,2.4,2.4,49,0.00,,FEW,0.00,WeatherDisplay:10.37,2013-02-17 00:15:00,
2013-02-16 18:20:00,12.4,-3.2,29.20,SE,135,2.3,2.3,49,0.00,,FEW,0.00,WeatherDisplay:10.37,2013-02-17 00:20:00,
2013-02-16 18:25:00,12.2,-3.3,29.20,SE,135,3.5,3.5,49,0.00,,FEW,0.00,WeatherDisplay:10.37,2013-02-17 00:25:00,
2013-02-16 18:30:00,12.0,-3.5,29.20,East,90,1.4,1.4,49,0.00,,FEW,0.00,WeatherDisplay:10.37,2013-02-17 00:30:00,
2013-02-16 18:35:00,11.7,-3.8,29.20,SE,135,2.3,2.3,49,0.00,,FEW,0.00,WeatherDisplay:10.37,2013-02-17 00:35:00,
2013-02-16 18:40:00,11.7,-3.8,29.20,SE,135,0.0,0.0,49,0.00,,FEW,0.00,WeatherDisplay:10.37,2013-02-17 00:40:00,
2013-02-16 18:45:00,11.3,-4.2,29.20,ESE,112,3.5,3.5,49,0.00,,FEW,0.00,WeatherDisplay:10.37,2013-02-17 00:45:00,
2013-02-16 18:50:00,11.3,-4.2,29.20,SSE,158,1.1,0.0,49,0.00,,FEW,0.00,WeatherDisplay:10.37,2013-02-17 00:50:00,
2013-02-16 18:55:00,11.1,-4.3,29.20,ESE,112,2.3,2.3,49,0.00,,FEW,0.00,WeatherDisplay:10.37,2013-02-17 00:55:00,
2013-02-16 19:00:00,10.9,-4.5,29.20,SE,135,1.1,1.1,49,0.00,,FEW,0.00,WeatherDisplay:10.37,2013-02-17 01:00:00,
2013-02-16 19:05:00,10.8,-4.7,29.20,SSW,202,1.1,0.0,49,0.00,,FEW,0.00,WeatherDisplay:10.37,2013-02-17 01:05:00,
2013-02-16 19:10:00,10.8,-4.7,29.20,SE,135,1.1,1.1,49,0.00,,FEW,0.00,WeatherDisplay:10.37,2013-02-17 01:10:00,
2013-02-16 19:15:00,10.8,-4.7,29.20,ESE,112,3.3,3.3,49,0.00,,FEW,0.00,WeatherDisplay:10.37,2013-02-17 01:15:00,
2013-02-16 19:20:00,10.8,-4.7,29.20,SSE,158,2.6,2.6,49,0.00,,FEW,0.00,WeatherDisplay:10.37,2013-02-17 01:20:00,
2013-02-16 19:25:00,10.4,-5.0,29.20,South,180,1.1,1.4,49,0.00,,FEW,0.00,WeatherDisplay:10.37,2013-02-17 01:25:00,
2013-02-16 19:30:00,10.2,-5.2,29.20,SE,135,2.3,2.3,49,0.00,,FEW,0.00,WeatherDisplay:10.37,2013-02-17 01:30:00,
2013-02-16 19:35:00,10.2,-5.2,29.20,ESE,112,3.5,3.5,49,0.00,,FEW,0.00,WeatherDisplay:10.37,2013-02-17 01:35:00,
2013-02-16 19:40:00,10.0,-5.4,29.20,SE,135,2.9,2.9,49,0.00,,FEW,0.00,WeatherDisplay:10.37,2013-02-17 01:40:00,
2013-02-16 19:45:00,10.0,-5.4,29.20,SE,135,2.3,2.3,49,0.00,,FEW,0.00,WeatherDisplay:10.37,2013-02-17 01:45:00,
2013-02-16 19:50:00,9.7,-5.7,29.20,SE,135,1.1,0.0,49,0.00,,FEW,0.00,WeatherDisplay:10.37,2013-02-17 01:50:00,
2013-02-16 19:55:00,9.7,-5.7,29.20,SSE,158,1.1,1.6,49,0.00,,FEW,0.00,WeatherDisplay:10.37,2013-02-17 01:55:00,
2013-02-16 20:01:00,9.5,-5.9,29.20,SSE,158,1.1,0.0,49,0.00,,FEW,0.00,WeatherDisplay:10.37,2013-02-17 02:01:00,
2013-02-16 20:06:00,9.5,-5.9,29.20,ESE,112,2.3,2.3,49,0.00,,FEW,0.00,WeatherDisplay:10.37,2013-02-17 02:06:00,
2013-02-16 20:11:00,9.3,-6.0,29.20,ESE,112,2.3,2.3,49,0.00,,FEW,0.00,WeatherDisplay:10.37,2013-02-17 02:11:00,
2013-02-16 20:16:00,9.3,-6.0,29.20,East,90,3.5,3.5,49,0.00,,FEW,0.00,WeatherDisplay:10.37,2013-02-17 02:16:00,
2013-02-16 20:21:00,9.1,-6.2,29.20,SE,135,0.0,0.0,49,0.00,,FEW,0.00,WeatherDisplay:10.37,2013-02-17 02:21:00,
2013-02-16 20:26:00,8.8,-6.5,29.20,ESE,112,1.1,0.0,49,0.00,,FEW,0.00,WeatherDisplay:10.37,2013-02-17 02:26:00,
2013-02-16 20:31:00,8.6,-6.7,29.20,ESE,112,0.0,0.0,49,0.00,,FEW,0.00,WeatherDisplay:10.37,2013-02-17 02:31:00,
2013-02-16 20:36:00,8.2,-7.0,29.20,ESE,112,0.0,0.0,49,0.00,,FEW,0.00,WeatherDisplay:10.37,2013-02-17 02:36:00,
2013-02-16 20:41:00,7.9,-7.4,29.20,ESE,112,0.0,0.0,49,0.00,,FEW,0.00,WeatherDisplay:10.37,2013-02-17 02:41:00,
2013-02-16 20:46:00,7.7,-7.5,29.18,ENE,68,0.0,0.0,49,0.00,,FEW,0.00,WeatherDisplay:10.37,2013-02-17 02:46:00,
2013-02-16 20:51:00,7.5,-7.7,29.18,West,270,1.1,0.0,49,0.00,,FEW,0.00,WeatherDisplay:10.37,2013-02-17 02:51:00,
2013-02-16 20:56:00,7.5,-7.7,29.18,West,270,0.0,0.0,49,0.00,,FEW,0.00,WeatherDisplay:10.37,2013-02-17 02:56:00,
2013-02-16 21:01:00,7.5,-7.7,29.18,NW,315,1.1,1.1,49,0.00,,FEW,0.00,WeatherDisplay:10.37,2013-02-17 03:01:00,
2013-02-16 21:06:00,7.7,-7.5,29.18,WNW,292,0.0,0.0,49,0.00,,FEW,0.00,WeatherDisplay:10.37,2013-02-17 03:06:00,
2013-02-16 21:11:00,7.7,-7.5,29.18,NNW,338,1.1,0.0,49,0.00,,FEW,0.00,WeatherDisplay:10.37,2013-02-17 03:11:00,
2013-02-16 21:16:00,7.7,-7.5,29.20,NNW,338,2.3,2.3,49,0.00,,FEW,0.00,WeatherDisplay:10.37,2013-02-17 03:16:00,
2013-02-16 21:21:00,7.9,-7.4,29.20,NNW,338,2.3,2.3,49,0.00,,FEW,0.00,WeatherDisplay:10.37,2013-02-17 03:21:00,
2013-02-16 21:26:00,8.1,-7.2,29.20,ENE,68,2.3,2.3,49,0.00,,FEW,0.00,WeatherDisplay:10.37,2013-02-17 03:26:00,
2013-02-16 21:31:00,8.1,-7.2,29.18,North,0,2.3,0.0,49,0.00,,FEW,0.00,WeatherDisplay:10.37,2013-02-17 03:31:00,
2013-02-16 21:36:00,8.1,-7.2,29.18,SE,135,1.6,0.0,49,0.00,,FEW,0.00,WeatherDisplay:10.37,2013-02-17 03:36:00,
2013-02-16 21:41:00,8.2,-7.0,29.18,SE,135,2.6,2.6,49,0.00,,FEW,0.00,WeatherDisplay:10.37,2013-02-17 03:41:00,
2013-02-16 21:46:00,8.2,-7.0,29.20,ESE,112,2.3,2.3,49,0.00,,FEW,0.00,WeatherDisplay:10.37,2013-02-17 03:46:00,
2013-02-16 21:51:00,8.4,-6.9,29.20,ESE,112,2.9,0.0,49,0.00,,FEW,0.00,WeatherDisplay:10.37,2013-02-17 03:51:00,
2013-02-16 21:56:00,8.4,-6.9,29.20,East,90,2.3,2.3,49,0.00,,FEW,0.00,WeatherDisplay:10.37,2013-02-17 03:56:00,
2013-02-16 22:01:00,8.6,-6.7,29.20,NE,45,2.3,0.0,49,0.00,,FEW,0.00,WeatherDisplay:10.37,2013-02-17 04:01:00,
2013-02-16 22:06:00,8.6,-6.7,29.20,ESE,112,3.5,3.5,49,0.00,,FEW,0.00,WeatherDisplay:10.37,2013-02-17 04:06:00,
2013-02-16 22:11:00,8.6,-6.7,29.20,SE,135,3.5,3.5,49,0.00,,FEW,0.00,WeatherDisplay:10.37,2013-02-17 04:11:00,
2013-02-16 22:16:00,8.6,-6.7,29.20,NNE,22,1.1,0.0,49,0.00,,FEW,0.00,WeatherDisplay:10.37,2013-02-17 04:16:00,
2013-02-16 22:21:00,8.4,-6.9,29.20,ENE,68,2.3,2.3,49,0.00,,FEW,0.00,WeatherDisplay:10.37,2013-02-17 04:21:00,
2013-02-16 22:26:00,8.2,-7.0,29.20,NNE,22,0.0,0.0,49,0.00,,FEW,0.00,WeatherDisplay:10.37,2013-02-17 04:26:00,
2013-02-16 22:31:00,8.1,-7.2,29.20,ESE,112,0.0,0.0,49,0.00,,FEW,0.00,WeatherDisplay:10.37,2013-02-17 04:31:00,
2013-02-16 22:36:00,8.1,-7.2,29.20,ENE,68,0.0,0.0,49,0.00,,FEW,0.00,WeatherDisplay:10.37,2013-02-17 04:36:00,
2013-02-16 22:41:00,8.1,-7.2,29.20,East,90,1.1,0.0,49,0.00,,FEW,0.00,WeatherDisplay:10.37,2013-02-17 04:41:00,
2013-02-16 22:46:00,8.2,-7.0,29.20,NE,45,2.3,2.3,49,0.00,,FEW,0.00,WeatherDisplay:10.37,2013-02-17 04:46:00,
2013-02-16 22:51:00,8.4,-6.9,29.20,ESE,112,2.9,2.9,49,0.00,,FEW,0.00,WeatherDisplay:10.37,2013-02-17 04:51:00,
2013-02-16 22:56:00,8.2,-7.0,29.20,SSE,158,2.0,2.0,49,0.00,,FEW,0.00,WeatherDisplay:10.37,2013-02-17 04:56:00,
2013-02-16 23:00:00,8.2,-7.0,29.20,NE,45,2.6,2.6,49,0.00,,FEW,0.00,WeatherDisplay:10.37,2013-02-17 05:00:00,
2013-02-16 23:05:00,8.4,-6.9,29.18,SE,135,3.5,3.5,49,0.00,,FEW,0.00,WeatherDisplay:10.37,2013-02-17 05:05:00,
2013-02-16 23:10:00,8.4,-6.9,29.18,SE,135,3.5,3.5,49,0.00,,FEW,0.00,WeatherDisplay:10.37,2013-02-17 05:10:00,
2013-02-16 23:15:00,8.6,-6.7,29.18,ESE,112,3.5,3.5,49,0.00,,FEW,0.00,WeatherDisplay:10.37,2013-02-17 05:15:00,
2013-02-16 23:20:00,8.8,-6.5,29.18,ESE,112,2.3,2.3,49,0.00,,FEW,0.00,WeatherDisplay:10.37,2013-02-17 05:20:00,
2013-02-16 23:25:00,8.6,-6.7,29.18,SE,135,2.3,2.3,49,0.00,,FEW,0.00,WeatherDisplay:10.37,2013-02-17 05:25:00,
2013-02-16 23:30:00,8.4,-6.9,29.18,SE,135,2.3,2.3,49,0.00,,FEW,0.00,WeatherDisplay:10.37,2013-02-17 05:30:00,
2013-02-16 23:35:00,8.4,-6.9,29.18,ESE,112,2.3,2.3,49,0.00,,FEW,0.00,WeatherDisplay:10.37,2013-02-17 05:35:00,
2013-02-16 23:40:00,8.4,-6.9,29.18,West,270,3.5,3.5,49,0.00,,FEW,0.00,WeatherDisplay:10.37,2013-02-17 05:40:00,
2013-02-16 23:45:00,8.8,-6.5,29.15,SE,135,3.5,3.5,49,0.00,,FEW,0.00,WeatherDisplay:10.37,2013-02-17 05:45:00,
2013-02-16 23:50:00,9.0,-6.4,29.15,SE,135,1.6,0.0,49,0.00,,FEW,0.00,WeatherDisplay:10.37,2013-02-17 05:50:00,
2013-02-16 23:55:00,9.3,-6.0,29.15,SSE,158,2.3,2.3,49,0.00,,FEW,0.00,WeatherDisplay:10.37,2013-02-17 05:55:00,